| time (UTC) | temp F | wind direction | speed knots | gust knots | rain 1hr in | rain 24hr in | rain mn in | humidity % | barometer mb |
| 20260504100305 | 73 | 98 | 0.9 | 0.0 | 0.00 | 0.00 | 0.00 | 86 | 1009.0 |
| 20260504100205 | 73 | 98 | 0.9 | 0.0 | 0.00 | 0.00 | 0.00 | 86 | 1009.0 |
| 20260504080301 | 72 | 109 | 0.9 | 0.9 | 0.00 | 0.00 | 0.00 | 83 | 1010.0 |
| 20260504080201 | 72 | 109 | 0.9 | 0.9 | 0.00 | 0.00 | 0.00 | 83 | 1010.0 |
| 20260504070300 | 75 | 109 | 0.9 | 0.9 | 0.00 | 0.00 | 0.00 | 83 | 1010.0 |
| 20260504070159 | 75 | 109 | 0.9 | 0.9 | 0.00 | 0.00 | 0.00 | 83 | 1010.0 |
| 20260504060158 | 78 | 109 | 0.9 | 0.9 | 0.00 | 0.00 | 0.00 | 83 | 1011.0 |
| 20260504050257 | 73 | 95 | 4.3 | 6.1 | 0.00 | 0.00 | 0.00 | 75 | 1011.0 |
| 20260504050156 | 73 | 95 | 4.3 | 6.1 | 0.00 | 0.00 | 0.00 | 75 | 1011.0 |
| 20260504044256 | 74 | 95 | 4.3 | 6.1 | 0.00 | 0.00 | 0.00 | 75 | 1011.0 |
| 20260504044156 | 74 | 95 | 4.3 | 6.1 | 0.00 | 0.00 | 0.00 | 75 | 1011.0 |
| 20260504042256 | 75 | 95 | 4.3 | 6.1 | 0.00 | 0.00 | 0.00 | 75 | 1011.0 |
| 20260504042156 | 75 | 95 | 4.3 | 6.1 | 0.00 | 0.00 | 0.00 | 75 | 1011.0 |
| 20260504040255 | 76 | 95 | 4.3 | 6.1 | 0.00 | 0.00 | 0.00 | 75 | 1011.0 |
| 20260504040155 | 76 | 95 | 4.3 | 6.1 | 0.00 | 0.00 | 0.00 | 75 | 1011.0 |
| 20260504034254 | 77 | 95 | 4.3 | 6.1 | 0.00 | 0.00 | 0.00 | 75 | 1011.0 |
| 20260504034154 | 77 | 95 | 4.3 | 6.1 | 0.00 | 0.00 | 0.00 | 75 | 1011.0 |
| 20260504032254 | 78 | 95 | 4.3 | 6.1 | 0.00 | 0.00 | 0.00 | 75 | 1011.0 |
| 20260504032154 | 78 | 95 | 4.3 | 6.1 | 0.00 | 0.00 | 0.00 | 75 | 1011.0 |
| 20260504030254 | 79 | 95 | 4.3 | 6.1 | 0.00 | 0.00 | 0.00 | 75 | 1011.0 |
| 20260504030153 | 79 | 95 | 4.3 | 6.1 | 0.00 | 0.00 | 0.00 | 75 | 1011.0 |
| 20260504024253 | 80 | 95 | 4.3 | 6.1 | 0.00 | 0.00 | 0.00 | 75 | 1011.0 |
| 20260504024153 | 80 | 95 | 4.3 | 6.1 | 0.00 | 0.00 | 0.00 | 75 | 1011.0 |
| 20260504022253 | 81 | 95 | 4.3 | 6.1 | 0.00 | 0.00 | 0.00 | 75 | 1011.0 |
| 20260504022152 | 81 | 95 | 4.3 | 6.1 | 0.00 | 0.00 | 0.00 | 75 | 1011.0 |
| 20260504020252 | 82 | 95 | 4.3 | 6.1 | 0.00 | 0.00 | 0.00 | 75 | 1011.0 |
| 20260504020152 | 82 | 95 | 4.3 | 6.1 | 0.00 | 0.00 | 0.00 | 75 | 1011.0 |
| 20260504014252 | 83 | 95 | 4.3 | 6.1 | 0.00 | 0.00 | 0.00 | 75 | 1011.0 |
| 20260504014151 | 83 | 95 | 4.3 | 6.1 | 0.00 | 0.00 | 0.00 | 75 | 1011.0 |
| 20260504012251 | 73 | 79 | 4.3 | 4.3 | 0.02 | 0.00 | 0.00 | 74 | 1010.0 |
| 20260504012151 | 73 | 79 | 4.3 | 4.3 | 0.02 | 0.00 | 0.00 | 74 | 1010.0 |
| 20260504010251 | 74 | 79 | 4.3 | 4.3 | 0.00 | 0.00 | 0.00 | 74 | 1010.0 |
| 20260504010150 | 74 | 79 | 4.3 | 4.3 | 0.00 | 0.00 | 0.00 | 74 | 1010.0 |
| 20260504004250 | 75 | 79 | 4.3 | 4.3 | 0.02 | 0.00 | 0.00 | 74 | 1010.0 |
| 20260504004150 | 75 | 79 | 4.3 | 4.3 | 0.02 | 0.00 | 0.00 | 74 | 1010.0 |
| 20260504002250 | 76 | 79 | 4.3 | 4.3 | 0.00 | 0.00 | 0.00 | 74 | 1009.0 |
| 20260504002149 | 76 | 79 | 4.3 | 4.3 | 0.00 | 0.00 | 0.00 | 74 | 1009.0 |
| 20260504000248 | 77 | 79 | 4.3 | 4.3 | 0.03 | 0.00 | 0.00 | 74 | 1009.0 |
| 20260504000148 | 77 | 79 | 4.3 | 4.3 | 0.03 | 0.00 | 0.00 | 74 | 1009.0 |
| 20260503234248 | 78 | 79 | 4.3 | 4.3 | 0.00 | 0.00 | 0.00 | 74 | 1009.0 |
| 20260503234148 | 78 | 79 | 4.3 | 4.3 | 0.00 | 0.00 | 0.00 | 74 | 1009.0 |
| 20260503232247 | 79 | 79 | 4.3 | 4.3 | 0.02 | 0.00 | 0.00 | 74 | 1008.0 |
| 20260503232147 | 79 | 79 | 4.3 | 4.3 | 0.02 | 0.00 | 0.00 | 74 | 1008.0 |
| 20260503230247 | 80 | 79 | 4.3 | 4.3 | 0.00 | 0.00 | 0.00 | 74 | 1008.0 |
| 20260503230147 | 80 | 79 | 4.3 | 4.3 | 0.00 | 0.00 | 0.00 | 74 | 1008.0 |
| 20260503224246 | 81 | 79 | 4.3 | 4.3 | 0.02 | 0.00 | 0.00 | 74 | 1008.0 |
| 20260503224146 | 81 | 79 | 4.3 | 4.3 | 0.02 | 0.00 | 0.00 | 74 | 1008.0 |
| 20260503222246 | 79 | 75 | 4.3 | 3.5 | 0.00 | 0.00 | 0.00 | 69 | 1008.0 |
| 20260503222146 | 79 | 75 | 4.3 | 3.5 | 0.00 | 0.00 | 0.00 | 69 | 1008.0 |
| 20260503220245 | 80 | 75 | 4.3 | 3.5 | 0.03 | 0.00 | 0.00 | 69 | 1008.0 |
| 20260503220145 | 80 | 75 | 4.3 | 3.5 | 0.03 | 0.00 | 0.00 | 69 | 1008.0 |
| 20260503214245 | 81 | 75 | 4.3 | 3.5 | 0.00 | 0.00 | 0.00 | 69 | 1008.0 |
| 20260503214144 | 81 | 75 | 4.3 | 3.5 | 0.00 | 0.00 | 0.00 | 69 | 1008.0 |
| 20260503212244 | 82 | 75 | 4.3 | 3.5 | 0.02 | 0.00 | 0.00 | 69 | 1008.0 |
| 20260503212144 | 82 | 75 | 4.3 | 3.5 | 0.02 | 0.00 | 0.00 | 69 | 1008.0 |
| 20260503210243 | 83 | 75 | 4.3 | 3.5 | 0.00 | 0.00 | 0.00 | 69 | 1008.0 |
| 20260503210143 | 83 | 75 | 4.3 | 3.5 | 0.00 | 0.00 | 0.00 | 69 | 1008.0 |
| 20260503204243 | 84 | 75 | 4.3 | 3.5 | 0.02 | 0.00 | 0.00 | 69 | 1008.0 |
| 20260503204143 | 84 | 75 | 4.3 | 3.5 | 0.02 | 0.00 | 0.00 | 69 | 1008.0 |
| 20260503202242 | 85 | 75 | 4.3 | 3.5 | 0.00 | 0.00 | 0.00 | 69 | 1009.0 |
| 20260503202142 | 85 | 75 | 4.3 | 3.5 | 0.00 | 0.00 | 0.00 | 69 | 1009.0 |
| 20260503200242 | 86 | 75 | 5.2 | 3.5 | 0.01 | 0.00 | 0.00 | 69 | 1009.0 |
| 20260503200141 | 86 | 75 | 5.2 | 3.5 | 0.01 | 0.00 | 0.00 | 69 | 1009.0 |
| 20260503194241 | 81 | 103 | 6.1 | 4.3 | 0.01 | 0.00 | 0.00 | 73 | 1009.0 |
| 20260503194141 | 81 | 103 | 6.1 | 4.3 | 0.01 | 0.00 | 0.00 | 73 | 1009.0 |
| 20260503192241 | 82 | 103 | 6.1 | 4.3 | 0.00 | 0.00 | 0.00 | 73 | 1010.0 |
| 20260503192140 | 82 | 103 | 6.1 | 4.3 | 0.00 | 0.00 | 0.00 | 73 | 1010.0 |
| 20260503190240 | 83 | 103 | 6.1 | 4.3 | 0.00 | 0.00 | 0.00 | 73 | 1010.0 |
| 20260503190140 | 83 | 103 | 6.1 | 4.3 | 0.00 | 0.00 | 0.00 | 73 | 1010.0 |
| 20260503184240 | 84 | 103 | 6.1 | 4.3 | 0.00 | 0.00 | 0.00 | 73 | 1010.0 |
| 20260503184139 | 84 | 103 | 6.1 | 4.3 | 0.00 | 0.00 | 0.00 | 73 | 1010.0 |
| 20260503182239 | 78 | 90 | 4.3 | 4.3 | 0.00 | 0.00 | 0.00 | 78 | 1011.0 |
| 20260503182139 | 78 | 90 | 4.3 | 4.3 | 0.00 | 0.00 | 0.00 | 78 | 1011.0 |
| 20260503180238 | 77 | 90 | 4.3 | 4.3 | 0.00 | 0.00 | 0.00 | 78 | 1011.0 |
| 20260503180138 | 77 | 90 | 4.3 | 4.3 | 0.00 | 0.00 | 0.00 | 78 | 1011.0 |
| 20260503174238 | 77 | 90 | 4.3 | 4.3 | 0.00 | 0.00 | 0.00 | 78 | 1011.0 |
| 20260503174138 | 77 | 90 | 4.3 | 4.3 | 0.00 | 0.00 | 0.00 | 78 | 1011.0 |
| 20260503172237 | 75 | 92 | 4.3 | 6.1 | 0.00 | 0.00 | 0.00 | 78 | 1012.0 |
| 20260503172137 | 75 | 92 | 4.3 | 6.1 | 0.00 | 0.00 | 0.00 | 78 | 1012.0 |
| 20260503170237 | 76 | 92 | 4.3 | 6.1 | 0.00 | 0.00 | 0.00 | 78 | 1012.0 |
| 20260503170137 | 76 | 92 | 4.3 | 6.1 | 0.00 | 0.00 | 0.00 | 78 | 1012.0 |
| 20260503160134 | 77 | 102 | 4.3 | 6.1 | 0.00 | 0.00 | 0.00 | 77 | 1012.0 |
| 20260503150233 | 77 | 84 | 3.5 | 4.3 | 0.00 | 0.00 | 0.00 | 78 | 1012.0 |
| 20260503150133 | 77 | 84 | 3.5 | 4.3 | 0.00 | 0.00 | 0.00 | 78 | 1012.0 |
| 20260503140231 | 80 | 84 | 3.5 | 5.2 | 0.00 | 0.00 | 0.00 | 78 | 1011.0 |
| 20260503140131 | 80 | 84 | 3.5 | 5.2 | 0.00 | 0.00 | 0.00 | 78 | 1011.0 |
| 20260503130230 | 76 | 80 | 0.9 | 0.9 | 0.00 | 0.00 | 0.00 | 83 | 1011.0 |
| 20260503130129 | 76 | 80 | 0.9 | 0.9 | 0.00 | 0.00 | 0.00 | 83 | 1011.0 |
| 20260503120128 | 72 | 77 | 3.5 | 6.1 | 0.00 | 0.00 | 0.00 | 89 | 1011.0 |
| 20260503110227 | 70 | 60 | 2.6 | 4.3 | 0.00 | 0.00 | 0.00 | 90 | 1011.0 |
| 20260503110126 | 70 | 60 | 2.6 | 4.3 | 0.00 | 0.00 | 0.00 | 90 | 1011.0 |